Regional Weather Roundup
Issued by NWS State College, PA

Home | Current Version | Previous Version | Text Only | Print | Product List | Glossary Off
Versions: 1 2 3 4 5 6 7 8 9 10 11 12 13 14 15 16 17 18 19 20 21 22 23 24 25 26 27 28 29 30 31 32 33 34 35 36 37 38 39 40 41 42 43 44 45 46 47 48 49 50

000
ASUS41 KCTP 281603
RWRCTP

REGIONAL WEATHER ROUNDUP
NATIONAL WEATHER SERVICE STATE COLLEGE PA
1100 AM EST SUN DEC 28 2014

Note: "fair" indicates few or no clouds below 12,000 feet with no
significant weather and/or obstructions to visibility.

* = STATION THAT DOES NOT REPORT PRECIPITATION /E.G. RAIN...SNOW...ETC/
    THUNDER OR FOG.

PAZ002>004-007>009-013>016-020>023-029>032-281700-
WESTERN PENNSYLVANIA

CITY           SKY/WX    TMP DP  RH WIND       PRES   REMARKS
ERIE           CLOUDY    37  27  67 NW8       30.07R
MEADVILLE      CLOUDY    35  31  85 NW6       30.03R
FRANKLIN*      CLOUDY    36  30  80 W7        30.04R
NEW CASTLE       N/A     36  34  92 CALM      30.07R
BEAVER COUNTY  CLOUDY    36  34  93 W3        30.06R FOG
BUTLER*        CLOUDY    36  34  93 NW5       30.06S
PITTSBURGH INT DRIZZLE   37  35  92 NW10      30.05R FOG
PITTSBURGH     CLOUDY    37  33  85 NW9       30.04R
INDIANA*       CLOUDY    37  36  93 NW6       30.06R
LATROBE        CLOUDY    39  37  93 W7        30.08R
WASHINGTON CO* NOT AVBL
$$

PAZ004>006-010>012-017>019-024>028-033>037-041-042-045-046-049>053-281700-
CENTRAL PENNSYLVANIA

CITY           SKY/WX    TMP DP  RH WIND       PRES   REMARKS
BRADFORD       CLOUDY    33  29  85 NW12      29.97R
DUBOIS         CLOUDY    35  33  92 NW9       29.98R
CLEARFIELD     CLOUDY    39  35  86 NW7       29.98R
JOHNSTOWN      CLOUDY    37  36  96 W13       29.98R FOG
ALTOONA        CLOUDY    43  39  86 NW9       29.98S
STATE COLLEGE  PTSUNNY   46  37  71 W14       29.97S
WILLIAMSPORT   CLOUDY    47  42  83 NW6       29.94S
SELINSGROVE    CLOUDY    46  41  82 CALM      29.94F
FT INDIANTOWN  CLOUDY    46  42  86 W7        29.95R
CAPITAL CITY   CLOUDY    47  41  80 CALM      29.96S
HARRISBURG     CLOUDY    45  41  86 CALM      29.95F
YORK           CLOUDY    49  40  71 CALM      29.95F
$$

PAZ038>040-043-044-047-048-054-055-060>062-067>071-281700-
EASTERN PENNSYLVANIA

CITY           SKY/WX    TMP DP  RH WIND       PRES   REMARKS
SCRANTON       CLOUDY    47  40  76 SW7       29.90F
MOUNT POCONO   CLOUDY    44  39  82 NW14      29.86S
ALLENTOWN      CLOUDY    47  40  76 SW5       29.91F
QUAKERTOWN*    CLOUDY    46  43  87 CALM      29.92F
READING        CLOUDY    48  41  76 CALM      29.93F
LANCASTER      CLOUDY    46  41  82 NW5       29.95F
COATESVILLE    PTSUNNY   50  41  71 W3        29.94F
POTTSTOWN      CLOUDY    47  42  83 S3        29.94F
BLUE BELL      CLOUDY    50  41  71 W3        29.93F
DOYLESTOWN     CLOUDY    46  42  86 W5        29.92F
WILLOW GROVE   NOT AVBL
NORTH PHILA    CLOUDY    51  39  63 SW8       29.95F
PHILADELPHIA   CLOUDY    49  42  77 W7        29.95F
$$


USA.gov is the U.S. government's official web portal to all federal, state and local government web resources and services.